STARLINK-11385, 62014

Orbit data source: Space-Track

STARLINK-11385, 62014 is a payload satellite owned by SpaceX/Seattle (US) in LEO that was launched on Mon, 18 Nov 2024 UTC via an FALCON 9 launch vehicle from the Air Force Western Test Range (AFWTR). Payload-class satellites include a variety of spacecraft equipped with specific instruments for various scientific and technological missions. These include communications satellites like Starlink; space stations such as the ISS; scientific satellites like the Hubble; Earth observation satellites from companies like Planet Labs, Umbra, and HawkEye 360; GPS; miniature CubeSats for education and research; and military/defense satellites.

Loading next visibility...
Identifier
62014, 2024-213G
Orbit
LEO
Last TLE update
16 hours ago
Origin
Manufacturer
SpaceX/Seattle
Mission
Operational Commercial Communications
Bus & Motor
STARLINK V2M, Unknown motor
Mass
730 kg wet, ~700 kg dry
Launch date (UTC)
2024-11-18 (7 months ago)
Launch vehicle
FALCON 9
Launch site
Air Force Western Test Range (AFWTR)
Object type
Payload
Rocket body
Debris
Shape & HBR
Box + 2 Pan, 29 m
Radar Cross Section
36.964 m², Large (>1 m²)

Expand to show TLE details & history

TLE from 16 hours ago
0 STARLINK-11385
1 62014U 24213G   25181.50032267  .00072304  00000-0  59577-3 0  9999
2 62014  53.1574 204.6379 0001006  71.7342 288.3786 15.69738239 35308
Epoch: 2025-06-30T12:00Z
TLE epoch observation values (Epoch: 2025-06-30T12:00:27.878Z)
Latitude
0.00002°
Longitude
105.71252°
Altitude
360.347 km
Speed
7.694 km/s
True Right ascension
13h 38m 33s
True Declination
0° 00' 00"
Sunlit
Object was in daylight at epoch
Visualization orbit readout
Latitude
30.23119°
Longitude
-103.28311°
Altitude
360.853 km
Speed
7.697 km/s
Apparent Right ascension
01h 25m 47s
Apparent Declination
-4° 13' 19"
Sunlit
Object is in daylight
Visualization observer readout
Local Sidereal Time
15:30:32
Azimuth
46.447° ENE
Elevation
-44.555°
Doppler factor
1
Orbital elements
Apogee altitude
360.585 km
Perigee altitude
359.229 km
Semi-major axis
6,738.044 km
Eccentricity
0.0001
Inclination
53.1574°
RAAN
204.6379°
Arg. of periapsis
71.7342°
True anomaly
Unknown
Mean anomaly
288.3786°
Eccentric anomaly
Unknown
Mean motion
3.92412 °/min
Orbital period
91.74 mins
BSTAR
0.00059577
Loading maneuver chart data...
Loading SW <> Apogee altitude chart data...
Loading historical data...
Loading historical data...
Loading historical data...
Loading historical data...
Loading historical data...
Loading historical data...
Loading historical data...

STARLINK-11385 Visibility forecast

Observer location: undefined°, undefined°

Span
Click to sort rows by Start time (UTC) header in descending order
Start Az.
Max El. time (UTC)
Max El. Az.
Max El.
End time (UTC)
End Az.
4 mins2025-07-01 05:02:10.182Z268.833° W2025-07-01 05:04:10.182Z329.12° NNW27.524°2025-07-01 05:06:10.182Z26.194° NE
4 mins2025-07-01 11:27:10.182Z287.992° WNW2025-07-01 11:29:10.182Z192.748° SSW33.489°2025-07-01 11:31:10.182Z151.422° SSE
|